FW5323 Weather Reports


time (UTC)temp
C
wind
direction
speed
KPH
gust
KPH
rain 1hr
cm
rain 24hr
cm
rain mn
cm
humidity
%
barometer
mb
20260510180529 20 213 1.6 6.4 0.00 0.41 0.00 64 1011.5
20260510180035 20 0 0.0 4.8 0.00 0.41 0.00 65 1011.4
20260510175528 20 0 0.0 0.0 0.00 0.43 0.00 67 1011.5
20260510175028 20 0 0.0 4.8 0.00 0.43 0.00 64 1011.7
20260510174535 20 0 0.0 4.8 0.00 0.43 0.00 66 1011.7
20260510174028 20 267 1.6 4.8 0.00 0.43 0.00 67 1011.8
20260510173529 20 219 1.6 9.7 0.00 0.43 0.00 67 1011.7
20260510173039 20 0 0.0 9.7 0.00 0.43 0.00 67 1011.7
20260510172528 20 207 1.6 6.4 0.00 0.43 0.00 69 1011.7
20260510172028 20 304 1.6 4.8 0.00 0.43 0.00 69 1011.9
20260510171539 20 263 0.0 6.4 0.00 0.43 0.00 68 1012.0
20260510171027 20 0 1.6 6.4 0.00 0.43 0.00 71 1011.9
20260510170527 20 0 0.0 0.0 0.00 0.43 0.00 70 1012.0
20260510170041 20 0 0.0 4.8 0.00 0.43 0.00 68 1011.9
20260510165528 20 0 0.0 9.7 0.00 0.48 0.00 69 1012.0
20260510165028 20 203 3.2 9.7 0.00 0.48 0.00 67 1011.9
20260510164547 20 276 1.6 8.0 0.00 0.48 0.00 69 1011.8
20260510164027 19 0 0.0 8.0 0.00 0.48 0.00 69 1011.7
20260510163527 19 250 0.0 6.4 0.00 0.48 0.00 71 1011.8
20260510163044 19 0 1.6 11.3 0.00 0.48 0.00 71 1011.9
20260510162528 19 0 3.2 11.3 0.00 0.48 0.00 70 1012.0
20260510162028 19 199 1.6 6.4 0.00 0.48 0.00 71 1012.0
20260510161542 18 0 0.0 8.0 0.00 0.48 0.00 71 1012.0
20260510161028 18 175 1.6 8.0 0.00 0.48 0.00 72 1012.0
20260510160528 18 213 0.0 6.4 0.00 0.48 0.00 71 1012.1
20260510160041 18 182 1.6 6.4 0.00 0.48 0.00 73 1012.2
20260510155527 18 201 1.6 12.9 0.00 0.48 0.00 73 1012.0
20260510155028 18 0 1.6 12.9 0.00 0.48 0.00 72 1012.1
20260510154546 18 161 3.2 11.3 0.00 0.48 0.00 72 1012.1
20260510154031 18 173 1.6 6.4 0.00 0.48 0.00 72 1012.0
20260510153528 18 302 3.2 8.0 0.00 0.48 0.00 73 1012.0
20260510153035 18 0 0.0 8.0 0.00 0.48 0.00 74 1012.1
20260510152527 18 197 1.6 9.7 0.00 0.48 0.00 74 1012.0
20260510152029 18 0 3.2 9.7 0.00 0.48 0.00 73 1012.0
20260510151553 18 205 1.6 8.0 0.00 0.48 0.00 76 1012.1
20260510151028 17 192 1.6 8.0 0.00 0.48 0.00 75 1011.9
20260510150530 17 192 1.6 9.7 0.00 0.48 0.00 76 1011.9
20260510150048 17 188 3.2 12.9 0.00 0.48 0.00 77 1012.0
20260510145528 17 179 1.6 12.9 0.00 0.51 0.00 77 1011.8
20260510145028 17 170 4.8 12.9 0.00 0.51 0.00 77 1011.8
20260510144554 16 210 3.2 11.3 0.00 0.51 0.00 77 1011.8
20260510144028 16 177 3.2 8.0 0.00 0.51 0.00 77 1011.8
20260510143527 16 216 3.2 9.7 0.00 0.51 0.00 79 1011.8
20260510143052 16 213 1.6 14.5 0.00 0.51 0.00 78 1011.9
20260510142527 16 167 3.2 14.5 0.00 0.51 0.00 80 1011.8
20260510142028 16 290 3.2 12.9 0.00 0.51 0.00 79 1011.7
20260510141538 16 165 3.2 9.7 0.00 0.51 0.00 79 1011.7
20260510141029 15 0 0.0 3.2 0.00 0.51 0.00 81 1011.7
20260510140528 15 0 0.0 6.4 0.00 0.51 0.00 81 1011.7
20260510140038 15 0 1.6 8.0 0.00 0.51 0.00 81 1011.7
20260510135528 15 222 0.0 8.0 0.00 0.51 0.00 83 1011.6
20260510135028 15 209 1.6 8.0 0.00 0.51 0.00 81 1011.6
20260510134539 14 221 0.0 11.3 0.00 0.51 0.00 82 1011.5
20260510134027 14 283 3.2 11.3 0.00 0.51 0.00 84 1011.7
20260510133527 14 0 1.6 6.4 0.00 0.51 0.00 85 1011.8
20260510133038 13 0 3.2 8.0 0.00 0.51 0.00 85 1011.9
20260510132530 13 0 1.6 8.0 0.00 0.51 0.00 85 1012.1
20260510132028 13 0 1.6 8.0 0.00 0.51 0.00 87 1012.1
20260510131545 13 193 1.6 8.0 0.00 0.51 0.00 88 1012.0
20260510131031 13 146 0.0 6.4 0.00 0.51 0.00 89 1012.0
20260510130528 12 0 0.0 3.2 0.00 0.51 0.00 90 1011.9
20260510130037 12 189 0.0 3.2 0.00 0.51 0.00 91 1011.9
20260510125530 12 0 0.0 3.2 0.00 0.51 0.00 91 1012.0
20260510125029 12 0 0.0 3.2 0.00 0.51 0.00 90 1012.1
20260510124542 11 0 0.0 4.8 0.00 0.51 0.00 91 1012.0
20260510124029 11 0 0.0 4.8 0.00 0.51 0.00 90 1012.1
20260510123527 11 0 0.0 0.0 0.00 0.51 0.00 91 1012.0
20260510123048 11 0 0.0 0.0 0.00 0.51 0.00 90 1011.9
20260510122526 11 0 0.0 3.2 0.00 0.51 0.00 90 1011.8
20260510122027 11 0 0.0 3.2 0.00 0.51 0.00 90 1011.8
20260510121539 11 0 0.0 3.2 0.00 0.51 0.00 90 1011.6
20260510121030 11 0 0.0 0.0 0.00 0.51 0.00 90 1011.6
20260510120528 10 0 0.0 0.0 0.00 0.51 0.00 90 1011.7
20260510120036 10 0 0.0 0.0 0.00 0.51 0.00 90 1011.5
20260510115527 10 0 0.0 0.0 0.00 0.53 0.00 90 1011.7
20260510115032 10 0 0.0 0.0 0.00 0.53 0.00 90 1011.5
20260510114542 10 0 0.0 0.0 0.00 0.53 0.00 90 1011.5
20260510114031 10 0 0.0 0.0 0.00 0.53 0.00 90 1011.5
20260510113528 10 0 0.0 0.0 0.00 0.53 0.00 90 1011.4
20260510113039 10 0 0.0 0.0 0.00 0.53 0.00 90 1011.3
20260510112529 10 0 0.0 0.0 0.00 0.53 0.00 90 1011.3
20260510112027 10 0 0.0 0.0 0.00 0.53 0.00 90 1011.4
20260510111543 10 0 0.0 0.0 0.00 0.53 0.00 90 1011.2
20260510111027 10 0 0.0 0.0 0.00 0.53 0.00 90 1011.2
20260510110527 10 0 0.0 0.0 0.00 0.53 0.00 90 1011.2
20260510110039 10 0 0.0 0.0 0.00 0.53 0.00 90 1011.2
20260510105528 10 0 0.0 0.0 0.00 0.53 0.00 90 1011.1
20260510105028 10 0 0.0 0.0 0.00 0.53 0.00 90 1011.1
20260510104537 10 0 0.0 0.0 0.00 0.53 0.00 90 1011.0
20260510104029 10 0 0.0 0.0 0.00 0.53 0.00 90 1011.0
20260510103527 10 0 0.0 0.0 0.00 0.53 0.00 90 1010.8
20260510103037 10 0 0.0 0.0 0.00 0.53 0.00 90 1010.8
20260510102530 10 0 0.0 0.0 0.00 0.53 0.00 90 1010.9
20260510102028 10 0 0.0 0.0 0.00 0.53 0.00 90 1011.0
20260510101538 10 0 0.0 0.0 0.00 0.53 0.00 90 1010.9
20260510101028 10 0 0.0 0.0 0.00 0.53 0.00 90 1010.8
20260510100528 10 0 0.0 0.0 0.00 0.53 0.00 90 1010.7
20260510100041 10 0 0.0 0.0 0.00 0.53 0.00 90 1010.6
20260510095527 10 0 0.0 0.0 0.00 0.58 0.00 90 1010.8
20260510095027 10 0 0.0 0.0 0.00 0.58 0.00 90 1010.9
20260510094538 10 0 0.0 0.0 0.00 0.58 0.00 90 1010.4
20260510094028 10 0 0.0 0.0 0.00 0.58 0.00 90 1010.5
20260510093527 10 0 0.0 0.0 0.00 0.58 0.00 90 1010.6
20260510093036 10 0 0.0 0.0 0.00 0.58 0.00 90 1010.3
20260510092527 10 0 0.0 0.0 0.00 0.58 0.00 90 1010.4
20260510092027 10 0 0.0 0.0 0.00 0.58 0.00 90 1010.5
20260510091535 10 0 0.0 0.0 0.00 0.58 0.00 90 1010.2
20260510091027 10 0 0.0 0.0 0.00 0.58 0.00 90 1010.0
20260510090527 10 0 0.0 4.8 0.00 0.58 0.00 90 1009.9
20260510090040 10 0 0.0 9.7 0.00 0.58 0.00 90 1010.0
20260510085528 10 0 1.6 9.7 0.00 0.61 0.00 90 1010.2
20260510085028 10 150 0.0 6.4 0.00 0.61 0.00 90 1010.0
20260510084540 10 0 0.0 3.2 0.00 0.61 0.00 90 1010.1
20260510084028 10 0 0.0 1.6 0.00 0.61 0.00 90 1010.3
20260510083528 10 0 0.0 0.0 0.00 0.61 0.00 90 1010.4
20260510083038 10 0 0.0 0.0 0.00 0.61 0.00 90 1010.4
20260510082526 10 0 0.0 0.0 0.00 0.61 0.00 90 1010.4
20260510082027 10 0 0.0 0.0 0.00 0.61 0.00 90 1010.3
20260510081538 10 0 0.0 0.0 0.00 0.61 0.00 90 1010.5
20260510081027 10 0 0.0 0.0 0.00 0.61 0.00 90 1010.7
20260510080527 10 0 0.0 0.0 0.00 0.61 0.00 90 1010.7
20260510080223 10 0 0.0 0.0 0.00 0.61 0.00 90 1010.6
20260510075527 10 0 0.0 0.0 0.00 0.64 0.00 90 1010.7
20260510075027 10 0 0.0 0.0 0.00 0.64 0.00 90 1010.7
20260510074548 10 0 0.0 0.0 0.00 0.64 0.00 90 1010.9
20260510074029 10 0 0.0 0.0 0.00 0.64 0.00 90 1010.9
20260510073530 10 0 0.0 0.0 0.00 0.64 0.00 90 1011.1
20260510073042 10 0 0.0 0.0 0.00 0.64 0.00 90 1011.1
20260510072527 10 0 0.0 0.0 0.00 0.64 0.00 90 1011.0
20260510072027 10 0 0.0 0.0 0.00 0.64 0.00 90 1011.2
20260510071540 10 0 0.0 0.0 0.00 0.64 0.00 90 1011.2
20260510071028 10 0 0.0 0.0 0.00 0.64 0.00 90 1011.3
20260510070527 10 0 0.0 1.6 0.00 0.64 0.00 90 1011.3
20260510070043 10 0 0.0 4.8 0.00 0.64 0.00 90 1011.2
20260510065527 10 0 0.0 6.4 0.00 0.64 0.00 90 1011.1
20260510065027 10 0 1.6 6.4 0.00 0.64 0.00 90 1011.3
20260510064549 10 0 0.0 0.0 0.00 0.64 0.00 90 1010.9
20260510064026 10 0 0.0 0.0 0.00 0.64 0.00 90 1010.8
20260510063527 10 0 0.0 0.0 0.00 0.64 0.00 90 1010.7
20260510063040 10 0 0.0 0.0 0.00 0.64 0.00 90 1010.7
20260510062528 10 0 0.0 0.0 0.00 0.64 0.00 90 1010.7
20260510062027 10 0 0.0 0.0 0.00 0.64 0.00 90 1010.6
20260510061536 10 0 0.0 0.0 0.00 0.64 0.00 90 1010.6
20260510061027 10 0 0.0 0.0 0.00 0.64 0.00 90 1010.7
20260510060527 10 0 0.0 0.0 0.00 0.64 0.00 90 1010.6
20260510060038 10 0 0.0 0.0 0.00 0.64 0.00 90 1010.8
20260510055526 10 0 0.0 0.0 0.00 0.64 0.00 90 1010.7
20260510055029 10 0 0.0 0.0 0.00 0.64 0.00 90 1010.7
20260510054550 10 0 0.0 0.0 0.00 0.64 0.00 90 1010.8
20260510054027 10 0 0.0 0.0 0.00 0.64 0.00 90 1010.9
20260510053528 10 0 0.0 0.0 0.00 0.64 0.00 90 1010.8
20260510053043 10 0 0.0 0.0 0.00 0.64 0.00 90 1010.9
20260510052528 10 0 0.0 0.0 0.00 0.64 0.00 90 1010.8
20260510052029 10 0 0.0 0.0 0.00 0.64 0.00 90 1010.7
20260510051547 10 0 0.0 0.0 0.00 0.64 0.00 90 1010.5
20260510051031 10 0 0.0 0.0 0.00 0.64 0.00 90 1010.4
20260510050527 10 0 0.0 0.0 0.00 0.64 0.00 90 1010.4
20260510050040 10 0 0.0 0.0 0.00 0.64 0.00 90 1010.5
20260510045527 10 0 0.0 0.0 0.00 0.64 0.00 90 1010.4
20260510045029 10 0 0.0 0.0 0.00 0.64 0.00 90 1010.4
20260510044537 10 0 0.0 0.0 0.00 0.64 0.00 90 1010.3
20260510044027 10 0 0.0 0.0 0.00 0.64 0.00 90 1010.4
20260510043527 10 0 0.0 0.0 0.00 0.64 0.00 90 1010.4
20260510043041 10 0 0.0 1.6 0.00 0.64 0.00 90 1010.4
20260510042532 10 0 0.0 1.6 0.00 0.64 0.00 90 1010.3
20260510042027 10 0 0.0 1.6 0.00 0.64 0.00 90 1010.5
20260510041535 10 0 0.0 0.0 0.00 0.64 0.00 90 1010.4
20260510041026 10 0 0.0 0.0 0.00 0.64 0.00 90 1010.4
20260510040527 10 0 0.0 0.0 0.00 0.64 0.00 90 1010.3
20260510040044 10 0 0.0 0.0 0.00 0.64 0.00 90 1010.3
20260510035527 10 0 0.0 0.0 0.00 0.64 0.64 90 1010.4
20260510035026 10 0 0.0 1.6 0.00 0.64 0.64 90 1010.4
20260510034554 10 0 0.0 1.6 0.00 0.64 0.64 89 1010.5
20260510034028 10 0 0.0 0.0 0.00 0.64 0.64 89 1010.4
20260510033529 9 0 0.0 0.0 0.00 0.64 0.64 89 1010.4
20260510033045 9 0 0.0 0.0 0.00 0.64 0.64 89 1010.2
20260510032526 9 0 0.0 3.2 0.00 0.64 0.64 89 1010.4
20260510032027 9 0 0.0 3.2 0.00 0.64 0.64 89 1010.4
20260510031538 9 169 0.0 3.2 0.00 0.64 0.64 89 1010.5
20260510031027 9 0 0.0 0.0 0.00 0.64 0.64 89 1010.5
20260510030526 9 0 0.0 0.0 0.00 0.64 0.64 89 1010.6
20260510030044 9 0 0.0 0.0 0.00 0.64 0.64 89 1010.6
20260510025527 9 0 0.0 0.0 0.00 0.64 0.64 88 1010.6
20260510025028 9 0 0.0 0.0 0.00 0.64 0.64 88 1010.3
20260510024542 9 0 0.0 0.0 0.00 0.64 0.64 88 1010.3
20260510024030 9 0 0.0 1.6 0.00 0.64 0.64 88 1010.5
20260510023527 9 0 0.0 1.6 0.00 0.64 0.64 88 1010.4
20260510023038 9 0 0.0 1.6 0.00 0.64 0.64 89 1010.3
20260510022527 10 0 0.0 0.0 0.00 0.64 0.64 89 1010.2
20260510022027 10 0 0.0 0.0 0.00 0.64 0.64 88 1010.3
20260510021539 10 0 0.0 0.0 0.00 0.64 0.64 88 1010.1
20260510021026 10 0 0.0 3.2 0.00 0.64 0.64 88 1010.2
20260510020526 10 0 0.0 3.2 0.00 0.64 0.64 88 1010.2
20260510020035 10 0 0.0 0.0 0.00 0.64 0.64 88 1010.2
20260510015528 10 0 0.0 0.0 0.00 0.64 0.64 88 1010.4
20260510015027 10 0 0.0 0.0 0.00 0.64 0.64 88 1010.4
20260510014546 10 0 0.0 0.0 0.00 0.64 0.64 88 1010.6
20260510014027 10 0 0.0 0.0 0.00 0.64 0.64 88 1010.6
20260510013531 10 0 0.0 0.0 0.00 0.64 0.64 87 1010.4
20260510013039 10 0 0.0 0.0 0.00 0.64 0.64 87 1010.3
20260510012527 10 0 0.0 0.0 0.00 0.64 0.64 87 1010.2
20260510012030 10 0 0.0 0.0 0.00 0.64 0.64 87 1010.2
20260510011536 10 0 0.0 0.0 0.00 0.64 0.64 87 1010.1
20260510011027 10 0 0.0 0.0 0.00 0.64 0.64 88 1010.1
20260510010528 10 0 0.0 0.0 0.00 0.64 0.64 88 1010.2
20260510010039 10 0 0.0 0.0 0.00 0.64 0.64 87 1010.3
20260510005528 10 0 0.0 0.0 0.00 0.64 0.64 87 1010.2
20260510005026 11 0 0.0 0.0 0.00 0.64 0.64 87 1010.1
20260510004535 11 0 0.0 0.0 0.00 0.64 0.64 87 1009.9
20260510004026 11 0 0.0 0.0 0.00 0.64 0.64 86 1010.0
20260510003528 11 0 0.0 0.0 0.00 0.64 0.64 86 1009.8
20260510003043 11 0 0.0 0.0 0.00 0.64 0.64 86 1009.7
20260510002526 11 0 0.0 0.0 0.00 0.64 0.64 86 1009.5
20260510002026 11 0 0.0 0.0 0.00 0.64 0.64 86 1009.4
20260510001539 11 0 0.0 0.0 0.00 0.64 0.64 86 1009.4
20260510001027 11 0 0.0 0.0 0.00 0.64 0.64 86 1009.4
20260510000527 12 0 0.0 0.0 0.00 0.64 0.64 86 1009.2
20260510000048 12 0 0.0 0.0 0.00 0.64 0.64 86 1009.1
20260509235527 12 0 0.0 0.0 0.00 0.64 0.64 86 1009.2
20260509235027 12 0 0.0 0.0 0.00 0.64 0.64 86 1009.0
20260509234538 12 0 0.0 0.0 0.00 0.64 0.64 86 1009.1
20260509234027 12 0 0.0 0.0 0.00 0.64 0.64 86 1009.1
20260509233526 12 0 0.0 0.0 0.00 0.64 0.64 86 1009.2
20260509233040 12 0 0.0 0.0 0.00 0.64 0.64 85 1009.1
20260509232527 12 0 0.0 0.0 0.00 0.64 0.64 86 1009.2
20260509232026 12 0 0.0 0.0 0.00 0.64 0.64 86 1009.3
20260509231539 12 0 0.0 0.0 0.03 0.64 0.64 86 1009.3
20260509231026 12 0 0.0 8.0 0.03 0.64 0.64 86 1009.4
20260509230526 12 0 0.0 8.0 0.03 0.64 0.64 85 1009.2
20260509230037 12 173 0.0 0.0 0.03 0.64 0.64 86 1009.2
20260509225528 12 0 0.0 0.0 0.03 0.64 0.64 87 1009.2
20260509225027 12 0 0.0 0.0 0.05 0.64 0.64 87 1009.1
20260509224535 12 0 0.0 9.7 0.05 0.64 0.64 87 1009.3
20260509224026 12 0 0.0 9.7 0.05 0.64 0.64 86 1009.1
20260509223527 12 163 1.6 9.7 0.05 0.64 0.64 87 1009.2
20260509223040 12 0 0.0 4.8 0.05 0.64 0.64 87 1009.2
20260509222527 12 0 0.0 8.0 0.08 0.64 0.64 87 1009.2
20260509222027 12 151 1.6 8.0 0.08 0.64 0.64 87 1009.3
20260509221539 12 150 0.0 8.0 0.05 0.61 0.61 87 1009.3
20260509221027 12 150 1.6 9.7 0.08 0.61 0.61 88 1009.4
20260509220526 12 0 1.6 11.3 0.08 0.61 0.61 88 1009.5
20260509220042 12 0 0.0 11.3 0.08 0.61 0.61 88 1009.3
20260509215527 12 0 0.0 3.2 0.10 0.61 0.61 88 1009.4
20260509215027 12 0 0.0 9.7 0.08 0.58 0.58 88 1009.3
20260509214539 12 0 1.6 9.7 0.08 0.58 0.58 88 1009.4
20260509214029 12 0 0.0 8.0 0.10 0.58 0.58 88 1009.6
20260509213527 12 170 0.0 8.0 0.10 0.58 0.58 88 1009.6
20260509213042 12 0 1.6 6.4 0.10 0.58 0.58 88 1009.5
20260509212527 12 0 0.0 3.2 0.10 0.56 0.56 88 1009.6
20260509212030 12 0 0.0 3.2 0.10 0.56 0.56 88 1009.4
20260509211542 11 0 0.0 0.0 0.13 0.56 0.56 88 1009.5
20260509211026 11 0 0.0 1.6 0.10 0.53 0.53 88 1009.5
20260509210527 11 0 0.0 3.2 0.10 0.53 0.53 88 1009.6
20260509210044 11 0 0.0 3.2 0.10 0.53 0.53 88 1009.5
20260509205528 11 198 0.0 3.2 0.10 0.51 0.51 88 1009.8
20260509205027 11 0 0.0 0.0 0.10 0.51 0.51 88 1009.9
20260509204542 11 0 0.0 4.8 0.10 0.48 0.48 88 1010.0
20260509204027 11 0 0.0 4.8 0.10 0.48 0.48 88 1010.1
20260509203530 11 0 0.0 4.8 0.10 0.48 0.48 88 1010.1
20260509203042 11 0 0.0 4.8 0.13 0.48 0.48 87 1010.2
20260509202526 12 200 0.0 8.0 0.10 0.46 0.46 87 1010.3
20260509202025 12 0 0.0 8.0 0.10 0.46 0.46 87 1010.4
20260509201540 12 184 1.6 25.7 0.10 0.43 0.43 87 1010.4
20260509201026 12 168 4.8 25.7 0.10 0.43 0.43 87 1010.4
20260509200526 12 0 0.0 8.0 0.10 0.43 0.43 87 1010.4
20260509200045 12 0 1.6 8.0 0.10 0.43 0.43 87 1010.5
20260509195527 12 0 0.0 0.0 0.10 0.41 0.41 87 1010.6
20260509195026 12 0 0.0 4.8 0.10 0.41 0.41 87 1010.7
20260509194547 12 0 0.0 4.8 0.08 0.38 0.38 87 1010.7
20260509194031 12 192 1.6 8.0 0.10 0.38 0.38 87 1010.8
20260509193527 12 204 1.6 8.0 0.10 0.38 0.38 87 1010.9
20260509193040 12 0 0.0 1.6 0.08 0.36 0.36 87 1010.9
20260509192526 12 0 0.0 0.0 0.08 0.36 0.36 88 1011.1
20260509192026 13 0 0.0 0.0 0.08 0.33 0.33 88 1011.0
20260509191542 13 0 0.0 0.0 0.08 0.33 0.33 88 1011.0
20260509191031 13 0 0.0 0.0 0.08 0.33 0.33 87 1011.1
20260509190526 13 0 0.0 6.4 0.10 0.33 0.33 88 1011.0
20260509190040 13 0 0.0 6.4 0.10 0.33 0.33 88 1011.0
20260509185526 13 0 0.0 0.0 0.08 0.30 0.30 88 1010.9
20260509185026 13 0 0.0 0.0 0.08 0.30 0.30 88 1011.1
20260509184538 13 0 0.0 0.0 0.08 0.30 0.30 88 1010.9
20260509184027 13 0 0.0 0.0 0.05 0.28 0.28 88 1010.8
20260509183526 13 0 0.0 0.0 0.05 0.28 0.28 88 1010.8
20260509183056 13 0 0.0 0.0 0.08 0.28 0.28 88 1010.8
20260509182529 13 0 0.0 0.0 0.08 0.28 0.28 88 1010.8
20260509182027 13 0 0.0 1.6 0.05 0.25 0.25 87 1010.7
20260509181538 13 0 0.0 1.6 0.05 0.25 0.25 87 1010.8
20260509181027 13 171 0.0 3.2 0.05 0.25 0.25 87 1010.7